Date,TemperatureHighF,TemperatureAvgF,TemperatureLowF,DewpointHighF,DewpointAvgF,DewpointLowF,HumidityHigh,HumidityAvg,HumidityLow,PressureMaxIn,PressureMinIn,WindSpeedMaxMPH,WindSpeedAvgMPH,GustSpeedMaxMPH,PrecipitationSumIn
2013-9-8,59.5,53.9,49.5,49.0,40.8,-99.9,83,69,65,29.93,0.00,0,-44,0,0.00
2013-9-9,62.5,54.3,45.9,51.0,47.5,43.0,91,78,60,30.19,29.92,0,0,0,0.02
2013-9-10,63.1,56.4,49.8,51.0,49.1,47.0,91,77,62,30.29,30.19,0,0,0,0.00
2013-9-11,63.2,58.4,53.8,61.0,55.5,50.0,94,90,83,30.29,30.08,0,0,0,0.02
2013-9-12,66.0,62.0,56.9,63.0,59.5,53.0,95,91,85,30.09,29.94,0,0,0,0.03
2013-9-13,57.8,54.0,51.4,52.0,47.9,43.0,93,80,63,30.09,30.03,0,0,0,0.00
2013-9-14,62.6,54.1,47.0,47.0,44.6,41.0,89,72,48,30.09,29.99,0,0,0,0.00
2013-9-15,63.6,56.3,48.5,60.0,48.0,39.0,90,74,50,29.98,29.41,0,0,0,0.01
2013-9-16,56.2,50.1,46.4,45.0,41.6,40.0,81,73,58,29.60,29.51,0,0,0,0.01
2013-9-17,52.1,50.8,49.4,51.0,46.8,42.0,95,86,72,29.59,29.32,0,0,0,0.00
2013-9-18,57.2,52.2,48.6,49.0,45.8,42.0,95,80,61,29.83,29.45,0,0,0,0.00
2013-9-19,63.2,56.7,50.6,56.0,48.5,44.0,90,74,60,29.86,29.52,0,0,0,0.00
2013-9-20,62.6,56.5,51.4,48.0,46.4,44.0,77,69,56,30.02,29.87,0,0,0,0.00
2013-9-21,74.2,65.1,56.1,63.0,57.6,48.0,89,77,62,30.17,29.99,0,0,0,0.00
2013-9-22,75.6,66.3,60.7,60.0,57.7,56.0,87,75,57,30.27,30.17,0,0,0,0.00
2013-9-23,75.7,63.7,55.3,62.0,58.2,53.0,95,83,63,30.22,30.02,0,0,0,0.00
2013-9-24,67.2,59.7,57.6,60.0,57.0,56.0,95,91,75,30.02,29.86,0,0,0,0.00
2013-9-25,61.2,53.7,57.3,59.0,43.6,-99.9,96,85,89,29.87,29.81,0,-85,0,0.00
2013-9-26,60.0,49.9,57.4,58.0,33.6,-99.9,95,79,91,29.93,29.85,0,-147,0,0.00
2013-9-27,67.6,59.8,53.8,61.0,55.8,53.0,98,87,69,29.93,29.80,0,0,0,0.00
2013-9-28,66.7,59.8,55.8,57.0,54.9,53.0,94,84,68,29.80,29.68,0,0,0,0.00
2013-9-29,62.5,53.2,57.7,55.0,38.1,-99.9,89,74,74,29.70,29.66,0,-104,0,0.00
2013-9-30,59.9,55.2,56.1,58.0,46.8,-99.9,92,84,85,29.66,29.59,0,-52,0,0.00